• In Deutschland
  • Länderverzeichnis
  • Für 7 Tage
  • Wassertemperatur
  • Satellitenkarten
  • Wetterkarte
  • Widgets
  • user-avatar
    Anmelden

    Stündliche Wetter Neustrelitz

    Heute, 20 Oktober, Samstag

    Zeit Temperatur Niederschläge Wind Luftdruck Luftfeuchtigkeit
    00:00 +6°C° 0 mm 1 m/S 762 mmHg 91%
    01:00 +6°C° 0 mm 1 m/S 762 mmHg 91%
    02:00 +6°C° 0 mm 1 m/S 762 mmHg 91%
    03:00 +5°C° 0 mm 2 m/S 762 mmHg 90%
    04:00 +5°C° 0 mm 2 m/S 762 mmHg 90%
    05:00 +5°C° 0 mm 2 m/S 762 mmHg 87%
    06:00 +6°C° 0 mm 2 m/S 763 mmHg 85%
    07:00 +6°C° 0 mm 2 m/S 763 mmHg 84%
    08:00 +7°C° 0 mm 2 m/S 763 mmHg 78%
    09:00 +8°C° 0 mm 3 m/S 763 mmHg 72%
    10:00 +9°C° 0 mm 3 m/S 763 mmHg 66%
    11:00 +10°C° 0 mm 3 m/S 763 mmHg 65%
    12:00 +11°C° 0 mm 4 m/S 763 mmHg 64%
    13:00 +11°C° 0 mm 4 m/S 763 mmHg 65%
    14:00 +11°C° 0 mm 4 m/S 763 mmHg 68%
    15:00 +11°C° 0 mm 3 m/S 763 mmHg 71%
    16:00 +11°C° 0 mm 3 m/S 763 mmHg 73%
    17:00 +10°C° 0 mm 3 m/S 763 mmHg 79%
    18:00 +9°C° 0 mm 3 m/S 763 mmHg 85%
    19:00 +8°C° 0 mm 2 m/S 763 mmHg 91%
    20:00 +8°C° 0 mm 2 m/S 763 mmHg 91%
    21:00 +8°C° 0 mm 2 m/S 763 mmHg 92%
    22:00 +8°C° 0 mm 2 m/S 763 mmHg 93%
    23:00 +7°C° 0 mm 2 m/S 763 mmHg 93%

    Morgen, 21 Oktober, Sonntag

    Zeit Temperatur Niederschläge Wind Luftdruck Luftfeuchtigkeit
    00:00 +7°C° 0 mm 2 m/S 763 mmHg 93%
    01:00 +6°C° 0 mm 2 m/S 763 mmHg 94%
    02:00 +7°C° 0 mm 1 m/S 763 mmHg 94%
    03:00 +7°C° 0 mm 1 m/S 763 mmHg 94%
    04:00 +7°C° 0 mm 1 m/S 763 mmHg 94%
    05:00 +7°C° 0 mm 1 m/S 763 mmHg 94%
    06:00 +6°C° 0 mm 1 m/S 763 mmHg 94%
    07:00 +6°C° 0 mm 1 m/S 764 mmHg 94%
    08:00 +8°C° 0 mm 1 m/S 764 mmHg 88%
    09:00 +10°C° 0 mm 1 m/S 764 mmHg 81%
    10:00 +12°C° 0 mm 1 m/S 764 mmHg 75%
    11:00 +13°C° 0 mm 2 m/S 764 mmHg 70%
    12:00 +14°C° 0 mm 2 m/S 764 mmHg 64%
    13:00 +15°C° 0 mm 2 m/S 764 mmHg 59%
    14:00 +14°C° 0 mm 2 m/S 763 mmHg 61%
    15:00 +14°C° 0 mm 2 m/S 763 mmHg 63%
    16:00 +14°C° 0 mm 2 m/S 763 mmHg 66%
    17:00 +12°C° 0 mm 2 m/S 763 mmHg 72%
    18:00 +10°C° 0 mm 2 m/S 763 mmHg 78%
    19:00 +8°C° 0 mm 2 m/S 763 mmHg 84%
    20:00 +8°C° 0 mm 2 m/S 763 mmHg 86%
    21:00 +8°C° 0 mm 2 m/S 762 mmHg 88%
    22:00 +8°C° 0 mm 3 m/S 762 mmHg 90%
    23:00 +7°C° 0 mm 3 m/S 762 mmHg 90%

    übermorgen, 22 Oktober, Montag

    Zeit Temperatur Niederschläge Wind Luftdruck Luftfeuchtigkeit
    00:00 +7°C° 0 mm 3 m/S 762 mmHg 90%
    01:00 +7°C° 0 mm 3 m/S 762 mmHg 91%
    02:00 +8°C° 0 mm 3 m/S 762 mmHg 90%
    03:00 +8°C° 0 mm 3 m/S 761 mmHg 88%
    04:00 +8°C° 0 mm 3 m/S 761 mmHg 87%
    05:00 +9°C° 0.1 mm 3 m/S 761 mmHg 87%
    06:00 +9°C° 0.1 mm 3 m/S 761 mmHg 87%
    07:00 +9°C° 0.1 mm 3 m/S 761 mmHg 86%
    08:00 +10°C° 0.3 mm 4 m/S 761 mmHg 87%
    09:00 +10°C° 0.3 mm 4 m/S 762 mmHg 88%
    10:00 +10°C° 0.3 mm 4 m/S 762 mmHg 88%
    11:00 +10°C° 0.4 mm 4 m/S 762 mmHg 83%
    12:00 +9°C° 0.4 mm 5 m/S 763 mmHg 77%
    13:00 +10°C° 0.4 mm 5 m/S 763 mmHg 71%
    14:00 +10°C° 0 mm 5 m/S 763 mmHg 69%
    15:00 +10°C° 0 mm 4 m/S 763 mmHg 68%
    16:00 +10°C° 0 mm 4 m/S 764 mmHg 66%
    17:00 +8°C° 0 mm 4 m/S 764 mmHg 70%
    18:00 +8°C° 0 mm 3 m/S 764 mmHg 74%
    19:00 +5°C° 0 mm 3 m/S 765 mmHg 79%
    20:00 +5°C° 0 mm 3 m/S 765 mmHg 80%
    21:00 +5°C° 0 mm 3 m/S 765 mmHg 81%
    22:00 +4°C° 0 mm 3 m/S 765 mmHg 83%
    23:00 +4°C° 0 mm 3 m/S 764 mmHg 83%

    23 Oktober, Dienstag

    Zeit Temperatur Niederschläge Wind Luftdruck Luftfeuchtigkeit
    00:00 +4°C° 0 mm 3 m/S 764 mmHg 83%
    01:00 +4°C° 0 mm 4 m/S 763 mmHg 83%
    02:00 +4°C° 0 mm 4 m/S 763 mmHg 83%
    03:00 +3°C° 0 mm 5 m/S 762 mmHg 82%
    04:00 +3°C° 0 mm 5 m/S 761 mmHg 81%
    05:00 +4°C° 0.1 mm 6 m/S 760 mmHg 80%
    06:00 +5°C° 0.1 mm 7 m/S 759 mmHg 79%
    07:00 +5°C° 0.1 mm 8 m/S 758 mmHg 77%
    08:00 +6°C° 0.1 mm 8 m/S 757 mmHg 78%
    09:00 +7°C° 0.1 mm 9 m/S 756 mmHg 78%
    10:00 +7°C° 0.1 mm 9 m/S 755 mmHg 78%
    11:00 +8°C° 0.5 mm 10 m/S 754 mmHg 79%
    12:00 +8°C° 0.5 mm 10 m/S 753 mmHg 80%
    13:00 +9°C° 0.5 mm 10 m/S 752 mmHg 81%
    14:00 +9°C° 0.9 mm 11 m/S 751 mmHg 81%
    15:00 +9°C° 0.9 mm 11 m/S 750 mmHg 82%
    16:00 +11°C° 0.9 mm 11 m/S 749 mmHg 82%
    17:00 +11°C° 0.6 mm 11 m/S 748 mmHg 82%
    18:00 +11°C° 0.6 mm 11 m/S 748 mmHg 81%
    19:00 +11°C° 0.6 mm 11 m/S 748 mmHg 80%
    20:00 +11°C° 0.3 mm 11 m/S 748 mmHg 78%
    21:00 +11°C° 0.3 mm 10 m/S 748 mmHg 76%
    22:00 +9°C° 0.3 mm 10 m/S 749 mmHg 75%
    23:00 +10°C° 0.1 mm 9 m/S 749 mmHg 73%

    24 Oktober, Mittwoch

    Zeit Temperatur Niederschläge Wind Luftdruck Luftfeuchtigkeit
    00:00 +8°C° 0.1 mm 9 m/S 749 mmHg 71%
    01:00 +7°C° 0.1 mm 8 m/S 749 mmHg 69%
    02:00 +6°C° 0 mm 8 m/S 750 mmHg 69%
    03:00 +5°C° 0 mm 7 m/S 751 mmHg 69%
    04:00 +5°C° 0 mm 7 m/S 751 mmHg 69%
    05:00 +4°C° 0 mm 6 m/S 751 mmHg 69%
    06:00 +4°C° 0 mm 6 m/S 752 mmHg 69%
    07:00 +4°C° 0 mm 6 m/S 752 mmHg 69%
    08:00 +5°C° 0 mm 6 m/S 753 mmHg 65%
    09:00 +6°C° 0 mm 7 m/S 753 mmHg 61%
    10:00 +7°C° 0 mm 8 m/S 754 mmHg 57%
    11:00 +7°C° 0 mm 8 m/S 754 mmHg 56%
    12:00 +7°C° 0 mm 8 m/S 754 mmHg 54%
    13:00 +7°C° 0 mm 8 m/S 754 mmHg 52%
    14:00 +8°C° 0 mm 7 m/S 755 mmHg 53%
    15:00 +8°C° 0 mm 6 m/S 755 mmHg 53%
    16:00 +8°C° 0 mm 5 m/S 755 mmHg 54%
    17:00 +7°C° 0 mm 5 m/S 755 mmHg 57%
    18:00 +6°C° 0 mm 4 m/S 756 mmHg 61%
    19:00 +5°C° 0 mm 4 m/S 756 mmHg 65%
    20:00 +5°C° 0 mm 4 m/S 756 mmHg 68%
    21:00 +4°C° 0 mm 4 m/S 756 mmHg 71%
    22:00 +4°C° 0 mm 4 m/S 756 mmHg 74%
    23:00 +4°C° 0 mm 4 m/S 756 mmHg 76%

    25 Oktober, Donnerstag

    Zeit Temperatur Niederschläge Wind Luftdruck Luftfeuchtigkeit
    00:00 +4°C° 0 mm 4 m/S 756 mmHg 78%
    01:00 +4°C° 0 mm 4 m/S 756 mmHg 81%
    02:00 +5°C° 0.1 mm 5 m/S 755 mmHg 83%
    03:00 +6°C° 0.1 mm 5 m/S 755 mmHg 85%
    04:00 +7°C° 0.1 mm 6 m/S 754 mmHg 87%
    05:00 +8°C° 0.2 mm 6 m/S 754 mmHg 88%
    06:00 +9°C° 0.2 mm 6 m/S 753 mmHg 89%
    07:00 +10°C° 0.2 mm 7 m/S 753 mmHg 89%
    08:00 +10°C° 0.1 mm 7 m/S 753 mmHg 85%
    09:00 +10°C° 0.1 mm 7 m/S 752 mmHg 81%
    10:00 +11°C° 0.1 mm 8 m/S 752 mmHg 76%
    11:00 +11°C° 0 mm 8 m/S 752 mmHg 74%
    12:00 +11°C° 0 mm 8 m/S 752 mmHg 72%
    13:00 +11°C° 0 mm 8 m/S 752 mmHg 70%
    14:00 +11°C° 0 mm 8 m/S 751 mmHg 71%
    15:00 +11°C° 0 mm 7 m/S 751 mmHg 72%
    16:00 +11°C° 0 mm 7 m/S 751 mmHg 72%
    17:00 +11°C° 0 mm 7 m/S 751 mmHg 74%
    18:00 +10°C° 0 mm 7 m/S 751 mmHg 76%
    19:00 +10°C° 0 mm 7 m/S 751 mmHg 77%
    20:00 +10°C° 0.1 mm 7 m/S 751 mmHg 79%
    21:00 +10°C° 0.1 mm 7 m/S 751 mmHg 80%
    22:00 +10°C° 0.1 mm 6 m/S 751 mmHg 82%
    23:00 +9°C° 0.1 mm 6 m/S 751 mmHg 82%
    Mehr zeigen